This is the latest recevied weather packets stored in our database for station/object F4GSP-4. If no packets are shown the sender has not sent any weather packets the latest 10 day(s).
| Time | Temp. | Humidity | Pressure | Rain* | Wind** | Luminosity | Snow |
|---|---|---|---|---|---|---|---|
| 1777713709 | 18.89° C | 50% | 1033.7 hPa | - | - | - | - |
| 1777712809 | 17.78° C | 51% | 1033.8 hPa | - | - | - | - |
| 1777711909 | 16.67° C | 51% | 1034 hPa | - | - | - | - |
| 1777711008 | 15.56° C | 52% | 1034.1 hPa | - | - | - | - |
| 1777710108 | 14.44° C | 52% | 1034.2 hPa | - | - | - | - |
| 1777709208 | 13.33° C | 52% | 1034.5 hPa | - | - | - | - |
| 1777708308 | 12.22° C | 53% | 1034.7 hPa | - | - | - | - |
| 1777707408 | 11.67° C | 53% | 1034.8 hPa | - | - | - | - |
| 1777706508 | 10.56° C | 54% | 1035.1 hPa | - | - | - | - |
| 1777705607 | 8.89° C | 54% | 1035.3 hPa | - | - | - | - |
| 1777704707 | 8.33° C | 54% | 1035.4 hPa | - | - | - | - |
| 1777703807 | 7.22° C | 55% | 1035.4 hPa | - | - | - | - |
| 1777702907 | 6.11° C | 55% | 1035.5 hPa | - | - | - | - |
| 1777702007 | 5° C | 55% | 1035.5 hPa | - | - | - | - |
| 1777701107 | 4.44° C | 55% | 1035.6 hPa | - | - | - | - |
| 1777700208 | 3.89° C | 55% | 1035.6 hPa | - | - | - | - |
| 1777699306 | 2.78° C | 54% | 1035.4 hPa | - | - | - | - |
| 1777698406 | 2.78° C | 54% | 1035.4 hPa | - | - | - | - |
| 1777697506 | 2.22° C | 54% | 1035.4 hPa | - | - | - | - |
| 1777696606 | 2.78° C | 54% | 1035.4 hPa | - | - | - | - |
| 1777695706 | 2.78° C | 54% | 1035.4 hPa | - | - | - | - |
| 1777694805 | 2.78° C | 53% | 1035.5 hPa | - | - | - | - |
| 1777693905 | 3.33° C | 53% | 1035.5 hPa | - | - | - | - |
| 1777693005 | 3.33° C | 53% | 1035.6 hPa | - | - | - | - |
| 1777692105 | 3.89° C | 53% | 1035.6 hPa | - | - | - | - |
* Rain since midnight (hover to see other rain measurements)
** Current wind speed in m/s (hover to see current wind gust speed)